Time,TemperatureF,DewpointF,PressureIn,WindDirection,WindDirectionDegrees,WindSpeedMPH,WindSpeedGustMPH,Humidity,HourlyPrecipIn,Conditions,Clouds,dailyrainin,SoftwareType,DateUTC
2013-01-01 00:07:00,51.9,48.0,30.20,South,184,5.0,5.0,85,0.00,,,0.00,weatherlink.com 1.10,2013-01-01 05:07:00,
2013-01-01 00:21:00,52.4,48.0,30.19,South,184,1.0,6.0,84,0.00,,,0.00,weatherlink.com 1.10,2013-01-01 05:21:00,
2013-01-01 00:36:00,52.6,48.0,30.19,South,184,0.0,7.0,84,0.00,,,0.00,weatherlink.com 1.10,2013-01-01 05:36:00,
2013-01-01 00:51:00,52.4,48.0,30.19,South,184,0.0,0.0,85,0.00,,,0.00,weatherlink.com 1.10,2013-01-01 05:51:00,
2013-01-01 01:06:00,51.9,48.0,30.18,South,184,0.0,0.0,85,0.00,,,0.00,weatherlink.com 1.10,2013-01-01 06:06:00,
2013-01-01 01:21:00,51.9,48.0,30.19,South,184,0.0,0.0,87,0.00,,,0.00,weatherlink.com 1.10,2013-01-01 06:21:00,
2013-01-01 01:36:00,51.4,48.0,30.18,South,184,0.0,0.0,87,0.00,,,0.00,weatherlink.com 1.10,2013-01-01 06:36:00,
2013-01-01 01:51:00,51.0,48.0,30.18,South,184,0.0,0.0,89,0.00,,,0.00,weatherlink.com 1.10,2013-01-01 06:51:00,
2013-01-01 02:06:00,50.5,47.0,30.17,South,184,0.0,0.0,89,0.00,,,0.00,weatherlink.com 1.10,2013-01-01 07:06:00,
2013-01-01 02:21:00,50.8,48.0,30.16,South,184,0.0,0.0,89,0.00,,,0.00,weatherlink.com 1.10,2013-01-01 07:21:00,
2013-01-01 02:36:00,51.2,48.0,30.16,South,184,0.0,5.0,88,0.00,,,0.00,weatherlink.com 1.10,2013-01-01 07:36:00,
2013-01-01 02:51:00,51.3,48.0,30.15,South,184,0.0,3.0,88,0.00,,,0.00,weatherlink.com 1.10,2013-01-01 07:51:00,
2013-01-01 03:06:00,52.0,48.0,30.14,South,183,3.0,5.0,86,0.00,,,0.00,weatherlink.com 1.10,2013-01-01 08:06:00,
2013-01-01 03:21:00,52.6,48.0,30.15,South,178,5.0,6.0,84,0.00,,,0.00,weatherlink.com 1.10,2013-01-01 08:21:00,
2013-01-01 03:36:00,52.5,48.0,30.15,South,180,1.0,6.0,84,0.00,,,0.00,weatherlink.com 1.10,2013-01-01 08:36:00,
2013-01-01 03:51:00,52.1,48.0,30.15,South,178,3.0,6.0,85,0.00,,,0.00,weatherlink.com 1.10,2013-01-01 08:51:00,
2013-01-01 04:06:00,52.0,48.0,30.14,South,179,4.0,8.0,85,0.00,,,0.00,weatherlink.com 1.10,2013-01-01 09:06:00,
2013-01-01 04:21:00,52.2,48.0,30.14,South,182,3.0,7.0,85,0.00,,,0.00,weatherlink.com 1.10,2013-01-01 09:21:00,
2013-01-01 04:36:00,51.5,48.0,30.12,South,182,0.0,4.0,86,0.00,,,0.00,weatherlink.com 1.10,2013-01-01 09:36:00,
2013-01-01 04:52:00,51.4,48.0,30.11,South,182,2.0,7.0,87,0.00,,,0.00,weatherlink.com 1.10,2013-01-01 09:52:00,
2013-01-01 05:06:00,51.7,48.0,30.10,South,181,2.0,7.0,87,0.00,,,0.00,weatherlink.com 1.10,2013-01-01 10:06:00,
2013-01-01 05:22:00,51.9,48.0,30.12,South,181,2.0,2.0,87,0.00,,,0.00,weatherlink.com 1.10,2013-01-01 10:22:00,
2013-01-01 05:37:00,52.1,49.0,30.12,South,181,0.0,0.0,88,0.00,,,0.00,weatherlink.com 1.10,2013-01-01 10:37:00,
2013-01-01 05:52:00,51.6,48.0,30.12,South,181,0.0,0.0,87,0.00,,,0.00,weatherlink.com 1.10,2013-01-01 10:52:00,
2013-01-01 06:07:00,51.1,47.0,30.12,South,181,0.0,0.0,87,0.00,,,0.00,weatherlink.com 1.10,2013-01-01 11:07:00,
2013-01-01 06:22:00,51.0,48.0,30.12,South,181,0.0,0.0,88,0.00,,,0.00,weatherlink.com 1.10,2013-01-01 11:22:00,
2013-01-01 06:37:00,50.6,47.0,30.11,South,181,0.0,0.0,88,0.00,,,0.00,weatherlink.com 1.10,2013-01-01 11:37:00,
2013-01-01 06:52:00,50.2,47.0,30.12,South,181,0.0,0.0,89,0.00,,,0.00,weatherlink.com 1.10,2013-01-01 11:52:00,
2013-01-01 07:07:00,50.4,48.0,30.12,South,181,0.0,0.0,90,0.00,,,0.00,weatherlink.com 1.10,2013-01-01 12:07:00,
2013-01-01 07:22:00,50.0,47.0,30.12,South,181,0.0,0.0,89,0.00,,,0.00,weatherlink.com 1.10,2013-01-01 12:22:00,
2013-01-01 07:37:00,50.3,48.0,30.12,South,181,0.0,0.0,90,0.00,,,0.00,weatherlink.com 1.10,2013-01-01 12:37:00,
2013-01-01 07:52:00,51.0,48.0,30.13,South,181,0.0,0.0,90,0.00,,,0.00,weatherlink.com 1.10,2013-01-01 12:52:00,
2013-01-01 08:07:00,51.4,48.0,30.14,South,181,0.0,0.0,89,0.00,,,0.00,weatherlink.com 1.10,2013-01-01 13:07:00,
2013-01-01 08:22:00,51.7,48.0,30.15,South,181,0.0,0.0,88,0.00,,,0.00,weatherlink.com 1.10,2013-01-01 13:22:00,
2013-01-01 08:37:00,52.2,49.0,30.15,South,181,0.0,0.0,88,0.00,,,0.00,weatherlink.com 1.10,2013-01-01 13:37:00,
2013-01-01 08:52:00,54.3,50.0,30.15,South,181,0.0,4.0,86,0.00,,,0.00,weatherlink.com 1.10,2013-01-01 13:52:00,
2013-01-01 09:07:00,55.4,51.0,30.15,South,180,0.0,3.0,84,0.00,,,0.00,weatherlink.com 1.10,2013-01-01 14:07:00,
2013-01-01 09:22:00,55.7,51.0,30.16,South,180,0.0,1.0,83,0.00,,,0.00,weatherlink.com 1.10,2013-01-01 14:22:00,
2013-01-01 09:37:00,56.2,51.0,30.16,South,180,0.0,6.0,82,0.00,,,0.00,weatherlink.com 1.10,2013-01-01 14:37:00,
2013-01-01 09:52:00,56.8,51.0,30.16,South,174,0.0,2.0,82,0.00,,,0.00,weatherlink.com 1.10,2013-01-01 14:52:00,
2013-01-01 10:07:00,57.2,51.0,30.16,South,180,0.0,6.0,81,0.00,,,0.00,weatherlink.com 1.10,2013-01-01 15:07:00,
2013-01-01 10:22:00,57.7,52.0,30.16,South,178,0.0,6.0,81,0.00,,,0.00,weatherlink.com 1.10,2013-01-01 15:22:00,
2013-01-01 10:37:00,58.2,52.0,30.15,South,176,3.0,9.0,80,0.00,,,0.00,weatherlink.com 1.10,2013-01-01 15:37:00,
2013-01-01 10:52:00,58.2,52.0,30.14,South,175,4.0,9.0,80,0.00,,,0.00,weatherlink.com 1.10,2013-01-01 15:52:00,
2013-01-01 11:07:00,58.2,52.0,30.14,South,178,5.0,9.0,80,0.00,,,0.00,weatherlink.com 1.10,2013-01-01 16:07:00,
2013-01-01 11:22:00,58.2,52.0,30.13,South,178,4.0,9.0,81,0.00,,,0.00,weatherlink.com 1.10,2013-01-01 16:22:00,
2013-01-01 11:37:00,58.7,53.0,30.13,South,175,5.0,9.0,81,0.00,,,0.00,weatherlink.com 1.10,2013-01-01 16:37:00,
2013-01-01 11:52:00,58.6,53.0,30.12,South,189,6.0,13.0,82,0.00,,,0.00,weatherlink.com 1.10,2013-01-01 16:52:00,
2013-01-01 12:07:00,58.8,53.0,30.11,South,180,3.0,10.0,82,0.00,,,0.00,weatherlink.com 1.10,2013-01-01 17:07:00,
2013-01-01 12:22:00,59.3,54.0,30.11,South,184,9.0,11.0,82,0.00,,,0.00,weatherlink.com 1.10,2013-01-01 17:22:00,
2013-01-01 12:37:00,59.7,54.0,30.10,South,180,2.0,11.0,82,0.00,,,0.00,weatherlink.com 1.10,2013-01-01 17:37:00,
2013-01-01 12:52:00,60.0,54.0,30.10,South,180,5.0,9.0,81,0.00,,,0.00,weatherlink.com 1.10,2013-01-01 17:52:00,
2013-01-01 13:07:00,60.5,55.0,30.08,SSW,196,2.0,8.0,81,0.00,,,0.00,weatherlink.com 1.10,2013-01-01 18:07:00,
2013-01-01 13:22:00,61.3,55.0,30.07,South,184,3.0,9.0,80,0.00,,,0.00,weatherlink.com 1.10,2013-01-01 18:22:00,
2013-01-01 13:37:00,61.7,55.0,30.07,South,186,2.0,7.0,79,0.00,,,0.00,weatherlink.com 1.10,2013-01-01 18:37:00,
2013-01-01 13:52:00,62.4,55.0,30.06,South,169,10.0,10.0,78,0.00,,,0.00,weatherlink.com 1.10,2013-01-01 18:52:00,
2013-01-01 14:07:00,62.9,56.0,30.06,South,186,0.0,10.0,77,0.00,,,0.00,weatherlink.com 1.10,2013-01-01 19:07:00,
2013-01-01 14:22:00,63.2,56.0,30.05,South,184,0.0,7.0,77,0.00,,,0.00,weatherlink.com 1.10,2013-01-01 19:22:00,
2013-01-01 14:37:00,63.5,56.0,30.05,South,180,6.0,10.0,76,0.00,,,0.00,weatherlink.com 1.10,2013-01-01 19:37:00,
2013-01-01 14:53:00,63.7,56.0,30.05,South,175,7.0,10.0,75,0.00,,,0.00,weatherlink.com 1.10,2013-01-01 19:53:00,
2013-01-01 15:08:00,64.0,56.0,30.04,SSE,167,3.0,13.0,75,0.00,,,0.00,weatherlink.com 1.10,2013-01-01 20:08:00,
2013-01-01 15:23:00,64.0,56.0,30.04,South,173,5.0,13.0,75,0.00,,,0.00,weatherlink.com 1.10,2013-01-01 20:23:00,
2013-01-01 15:38:00,63.5,56.0,30.04,South,173,8.0,12.0,76,0.00,,,0.00,weatherlink.com 1.10,2013-01-01 20:38:00,
2013-01-01 15:53:00,63.1,56.0,30.03,South,173,8.0,12.0,77,0.00,,,0.00,weatherlink.com 1.10,2013-01-01 20:53:00,
2013-01-01 16:08:00,62.3,55.0,30.03,South,178,7.0,12.0,78,0.00,,,0.00,weatherlink.com 1.10,2013-01-01 21:08:00,
2013-01-01 16:23:00,61.1,55.0,30.03,South,179,9.0,12.0,80,0.00,,,0.00,weatherlink.com 1.10,2013-01-01 21:23:00,
2013-01-01 16:38:00,60.9,55.0,30.02,South,180,0.0,10.0,81,0.00,,,0.00,weatherlink.com 1.10,2013-01-01 21:38:00,
2013-01-01 16:53:00,60.6,55.0,30.02,South,178,5.0,12.0,81,0.00,,,0.00,weatherlink.com 1.10,2013-01-01 21:53:00,
2013-01-01 17:08:00,60.2,55.0,30.02,South,182,8.0,9.0,82,0.00,,,0.00,weatherlink.com 1.10,2013-01-01 22:08:00,
2013-01-01 17:23:00,59.9,55.0,30.02,South,172,8.0,11.0,83,0.00,,,0.00,weatherlink.com 1.10,2013-01-01 22:23:00,
2013-01-01 17:38:00,59.5,55.0,30.01,South,181,4.0,8.0,84,0.00,,,0.00,weatherlink.com 1.10,2013-01-01 22:38:00,
2013-01-01 17:53:00,59.0,55.0,30.02,South,182,1.0,7.0,85,0.00,,,0.00,weatherlink.com 1.10,2013-01-01 22:53:00,
2013-01-01 18:08:00,58.7,55.0,30.02,South,184,6.0,7.0,86,0.00,,,0.00,weatherlink.com 1.10,2013-01-01 23:08:00,
2013-01-01 18:23:00,58.8,55.0,30.02,South,180,6.0,11.0,86,0.00,,,0.00,weatherlink.com 1.10,2013-01-01 23:23:00,
2013-01-01 18:38:00,58.9,55.0,30.02,South,185,8.0,13.0,86,0.00,,,0.00,weatherlink.com 1.10,2013-01-01 23:38:00,
2013-01-01 18:53:00,59.6,56.0,30.02,South,177,12.0,14.0,86,0.00,,,0.00,weatherlink.com 1.10,2013-01-01 23:53:00,
2013-01-01 19:08:00,61.0,56.0,30.02,South,183,8.0,16.0,83,0.00,,,0.00,weatherlink.com 1.10,2013-01-02 00:08:00,
2013-01-01 19:23:00,61.2,56.0,30.01,South,173,7.0,12.0,83,0.00,,,0.00,weatherlink.com 1.10,2013-01-02 00:23:00,
2013-01-01 19:38:00,61.2,56.0,30.01,South,176,6.0,12.0,84,0.00,,,0.00,weatherlink.com 1.10,2013-01-02 00:38:00,
2013-01-01 19:53:00,61.0,57.0,30.00,South,182,8.0,10.0,85,0.00,,,0.00,weatherlink.com 1.10,2013-01-02 00:53:00,
2013-01-01 20:08:00,60.9,57.0,30.00,South,179,8.0,11.0,86,0.00,,,0.00,weatherlink.com 1.10,2013-01-02 01:08:00,
2013-01-01 20:23:00,60.8,57.0,30.01,South,176,6.0,12.0,86,0.00,,,0.00,weatherlink.com 1.10,2013-01-02 01:23:00,
2013-01-01 20:38:00,61.0,57.0,30.01,South,178,6.0,11.0,86,0.00,,,0.00,weatherlink.com 1.10,2013-01-02 01:38:00,
2013-01-01 20:53:00,61.2,57.0,30.01,South,178,5.0,13.0,87,0.00,,,0.00,weatherlink.com 1.10,2013-01-02 01:53:00,
2013-01-01 21:08:00,61.4,57.0,30.00,South,178,11.0,13.0,86,0.00,,,0.00,weatherlink.com 1.10,2013-01-02 02:08:00,
2013-01-01 21:23:00,61.5,57.0,30.00,South,175,6.0,14.0,86,0.00,,,0.00,weatherlink.com 1.10,2013-01-02 02:23:00,
2013-01-01 21:38:00,61.4,57.0,29.99,South,175,6.0,15.0,86,0.00,,,0.00,weatherlink.com 1.10,2013-01-02 02:38:00,
2013-01-01 21:53:00,61.6,57.0,29.99,South,178,7.0,12.0,86,0.00,,,0.00,weatherlink.com 1.10,2013-01-02 02:53:00,
2013-01-01 22:08:00,62.0,58.0,29.99,South,172,8.0,13.0,86,0.00,,,0.00,weatherlink.com 1.10,2013-01-02 03:08:00,
2013-01-01 22:23:00,62.5,58.0,29.99,South,179,7.0,11.0,85,0.00,,,0.00,weatherlink.com 1.10,2013-01-02 03:23:00,
2013-01-01 22:38:00,62.7,59.0,29.98,South,180,6.0,13.0,86,0.00,,,0.00,weatherlink.com 1.10,2013-01-02 03:38:00,
2013-01-01 22:53:00,62.5,58.0,29.98,SSE,164,10.0,13.0,86,0.00,,,0.00,weatherlink.com 1.10,2013-01-02 03:53:00,
2013-01-01 23:08:00,62.3,58.0,29.97,South,172,8.0,12.0,87,0.00,,,0.00,weatherlink.com 1.10,2013-01-02 04:08:00,
2013-01-01 23:23:00,62.0,58.0,29.96,South,180,5.0,11.0,87,0.00,,,0.00,weatherlink.com 1.10,2013-01-02 04:23:00,
2013-01-01 23:38:00,61.7,58.0,29.96,South,178,5.0,14.0,88,0.00,,,0.00,weatherlink.com 1.10,2013-01-02 04:38:00,
2013-01-01 23:53:00,61.9,58.0,29.96,South,180,10.0,13.0,87,0.00,,,0.00,weatherlink.com 1.10,2013-01-02 04:53:00,